Regional Weather Roundup
Issued by NWS Albany, NY

Home | Current Version | Previous Version | Graphics & Text | Print | Product List | Glossary Off
Versions: 1 2 3 4 5 6 7 8 9 10 11 12 13 14 15 16 17 18 19 20 21 22 23 24 25 26 27

000
ASUS41 KALY 260110
RWRALY

NEW YORK STATE HOURLY WEATHER ROUNDUP
NATIONAL WEATHER SERVICE ALBANY NY
900 PM EDT SUN SEP 25 2016

NOTE: "FAIR" INDICATES FEW OR NO CLOUDS BELOW 12,000 FEET WITH NO
SIGNIFICANT WEATHER AND/OR NO OBSTRUCTIONS TO VISIBILITY.

NYZ032-033-038>043-046>054-057>066-NYZ062>081-082-084-260200-
EAST


CITY           SKY/WX    TMP DP  RH WIND       PRES   REMARKS
ALBANY         PTCLDY    51  40  65 CALM      30.18R
GLENS FALLS    CLEAR     45  40  82 CALM      30.19R
POUGHKEEPSIE   CLEAR     49  40  71 CALM      30.17R
MONTGOMERY     CLEAR     48  41  76 CALM      30.18R
WHITE PLAINS   CLEAR     53  40  61 CALM      30.17R
ISLIP          PTCLDY    56  37  49 N5        30.16R
NEW YORK CITY  PTCLDY    67  37  33 E6        30.16R
CENTRAL PARK   CLEAR     63  38  39 CALM      30.19R
$$

NYZ005>009-017-018-044>046-055-056-260200-
CENTRAL


CITY           SKY/WX    TMP DP  RH WIND       PRES   REMARKS
FULTON         CLOUDY    45  42  89 CALM      30.20S
SYRACUSE       PTCLDY    50  43  77 CALM      30.20R
ROME           CLEAR     45  42  89 SE5       30.23R
ELMIRA         CLOUDY    46  36  68 N3        30.18R
BINGHAMTON     CLEAR     50  34  54 NE6       30.20R
MONTICELLO     CLEAR     48  37  66 NW5       30.21R
$$

NYZ026>034-041>043-087-260200-
NORTH


CITY           SKY/WX    TMP DP  RH WIND       PRES   REMARKS
WATERTOWN      CLEAR     43  41  93 E3        30.20S
FORT DRUM      NOT AVBL
OGDENSBURG     FAIR      41  39  93 CALM      30.20R
MASSENA        CLEAR     43  38  82 CALM      30.21R
SARANAC LAKE   CLEAR     35  33  92 CALM      30.19R
PLATTSBURGH    CLEAR     44  39  82 CALM      30.18S
$$

NYZ001>004-010>016-019>021-085-260200-
WEST


CITY           SKY/WX    TMP DP  RH WIND       PRES   REMARKS
NIAGARA FALLS  PTCLDY    53  45  74 E5        30.16R
BUFFALO        PTCLDY    54  46  74 NE8       30.16R
DUNKIRK        CLEAR     51  45  79 CALM      30.15R
JAMESTOWN      CLOUDY    55  41  58 NE5       30.15S
WELLSVILLE     CLOUDY    51  41  68 CALM      30.20R
ROCHESTER      CLOUDY    54  39  57 E8        30.19R
PENN YAN       PTCLDY    47  37  68 CALM      30.20R
$$

             KEY
       WCI = WIND CHILL INDEX
       VSB = VISIBILITY
       HX  = HEAT INDEX
$$




USA.gov is the U.S. government's official web portal to all federal, state and local government web resources and services.